Regional Weather Roundup
Issued by NWS

Home | Current Version | Previous Version | Text Only | Print | Product List | Glossary Off
Versions: 1 2 3 4 5 6 7 8 9 10 11 12 13 14 15 16 17 18 19 20 21 22 23 24 25 26 27 28 29 30 31 32 33 34 35 36 37 38 39 40 41 42 43 44 45 46 47 48 49 50

000
ASUS43 KDTX 290610
RWRMI
MICHIGAN HOURLY REGIONAL WEATHER ROUNDUP
NATIONAL WEATHER SERVICE DETROIT/PONTIAC MI
200 AM EDT SAT AUG 29 2015

NOTE: "FAIR" INDICATES FEW OR NO CLOUDS BELOW 12,000 FEET WITH NO
SIGNIFICANT WEATHER AND/OR OBSTRUCTION TO VISIBILITY.

MIZ047>049-052>055-059>063-066>070-074>076-081>083-290700-
SOUTHEAST LOWER MICHIGAN

CITY           SKY/WX    TMP DP  RH WIND       PRES   REMARKS
ADRIAN         FAIR      64  60  87 S3        30.16F
6HR MIN TEMP:  62; 6HR MAX TEMP:  70;

ALMA           RAIN      63  62  98 SW3       30.15S
ANN ARBOR      FAIR      61  60  97 CALM      30.15F
BAD AXE        MOCLDY    62  59  90 SW5       30.14S
CARO           FAIR      59  58  98 CALM      30.14S
DETROIT CITY   FAIR      66  60  81 CALM      30.16R
6HR MIN TEMP:  65; 6HR MAX TEMP:  71;

DETROIT        CLOUDY    65  62  90 CALM      30.16S
6HR MIN TEMP:  64; 6HR MAX TEMP:  70;

FLINT          MOCLDY    67  60  78 SW3       30.15S
6HR MIN TEMP:  63; 6HR MAX TEMP:  73;

GROSSE ILE     FAIR      70  64  83 S7        30.15R
HILLSDALE      FAIR      65  62  89 SE3       30.16S
6HR MIN TEMP:  61; 6HR MAX TEMP:  69;

HOWELL         LGT RAIN  65  61  86 S3        30.15S

CITY           SKY/WX    TMP DP  RH WIND       PRES   REMARKS
JACKSON        CLOUDY    64  60  87 SE6       30.15S
6HR MIN TEMP:  63; 6HR MAX TEMP:  71;

LAMBERTVILLE   FAIR      64  60  85 CALM      30.16S
6HR MIN TEMP:  62; 6HR MAX TEMP:  70;

LANSING        LGT RAIN  64  62  93 CALM      30.16R
6HR MIN TEMP:  63; 6HR MAX TEMP:  72; 6HR PCP:  0.02;

LAPEER         MOCLDY    59  58  99 CALM      30.15F
6HR MIN TEMP:  57; 6HR MAX TEMP:  66;

MASON          LGT RAIN  64  60  84 S3        30.15S
MONROE         FAIR      65  61  85 CALM      30.15S
6HR MIN TEMP:  61; 6HR MAX TEMP:  70;

MT. CLEMENS    CLOUDY    65  61  88 S5        30.14R
6HR MIN TEMP:  62; 6HR MAX TEMP:  68;

PONTIAC        FAIR      65  61  87 S3        30.15S
6HR MIN TEMP:  64; 6HR MAX TEMP:  71;

PORT HOPE        N/A     63  58  83 VRB5      30.11F
6HR MIN TEMP:  63; 6HR MAX TEMP:  67;

PORT HURON     FAIR      57  57 100 CALM      30.16S FOG
TRI CITIES     LGT RAIN  65  61  87 SW5       30.14S
6HR MIN TEMP:  64; 6HR MAX TEMP:  71; 6HR PCP: TRACE;

MIDLAND        LGT RAIN  62  61  96 CALM      30.13S
TROY           FAIR      66  61  82 CALM      30.17S
SAGINAW HB     MOCLDY    63  61  94 SW5       30.13S
$$
MIZ043>046-050>051-056>058-064>065-071>073-077>080-290700-
SOUTHWEST LOWER MICHIGAN

CITY           SKY/WX    TMP DP  RH WIND       PRES   REMARKS
BATTLE CREEK   FAIR      68  61  78 CALM      30.14S
6HR MIN TEMP:  67; 6HR MAX TEMP:  74; 6HR PCP: TRACE;

BENTON HARBOR  FAIR      65  61  87 E3        30.10F
6HR MIN TEMP:  64; 6HR MAX TEMP:  70;

BIG RAPIDS     DRIZZLE   60  59  94 CALM      30.15F
6HR MIN TEMP:  60; 6HR MAX TEMP:  66; 6HR PCP:  0.03;

COLDWATER      FAIR      64  60  87 SE3       30.14S
6HR MIN TEMP:  64; 6HR MAX TEMP:  69;

FREMONT        RAIN      61  61 100 CALM      30.14F
HOLLAND        FAIR      66  62  87 E6        30.13S
6HR MIN TEMP:  66; 6HR MAX TEMP:  70; 6HR PCP:  0.02;

GRAND RAPIDS   LGT RAIN  65  64  97 NE7       30.14F
6HR MIN TEMP:  65; 6HR MAX TEMP:  71; 6HR PCP:  0.03;

IONIA          LGT RAIN  64  64  99 N5        30.14S
6HR MIN TEMP:  63; 6HR MAX TEMP:  71; 6HR PCP:  0.03;

KALAMAZOO      FAIR      65  61  87 CALM      30.13F
6HR MIN TEMP:  65; 6HR MAX TEMP:  73; 6HR PCP: TRACE;

LUDINGTON      LGT RAIN  64  60  88 CALM      30.13F
6HR MIN TEMP:  64; 6HR MAX TEMP:  71; 6HR PCP:  0.06;

MARSHALL       FAIR      64  61  88 CALM      30.14S
MOUNT PLEASANT DRIZZLE   65  62  90 W5        30.14S
6HR MIN TEMP:  62; 6HR MAX TEMP:  72;

MUSKEGON       LGT RAIN  64  59  83 NE6       30.13F
6HR MIN TEMP:  64; 6HR MAX TEMP:  70; 6HR PCP:  0.08;

SOUTH HAVEN    FAIR      65  61  87 CALM      30.10F
$$
MIZ016>042-290700-
NORTHERN LOWER MICHIGAN

CITY           SKY/WX    TMP DP  RH WIND       PRES   REMARKS
ALPENA         MOCLDY    65  58  78 SW7       30.10S
6HR MIN TEMP:  61; 6HR MAX TEMP:  69;

BEAVER ISLAND  CLOUDY    64  60  87 SW14G22   30.07R
BELLAIRE       DRIZZLE   63  61  92 SW3       30.10S
6HR MIN TEMP:  63; 6HR MAX TEMP:  71;

CADILLAC       DRIZZLE   60  58  93 SW9       30.14S
CHARLEVOIX     LGT RAIN  64  63  97 SW5       30.11S
6HR MIN TEMP:  64; 6HR MAX TEMP:  69;

FRANKFORT      LGT RAIN  63  60  90 W9        30.12S
GAYLORD        LGT RAIN  61  60  97 SW6       30.11F
6HR MIN TEMP:  61; 6HR MAX TEMP:  68; 6HR PCP:  0.05;

GRAYLING       RAIN      60  58  93 CALM      30.13F
6HR MIN TEMP:  60; 6HR MAX TEMP:  67;

HARBOR SPRINGS DRIZZLE   64  62  94 SW6       30.07F
HOUGHTON LAKE  CLOUDY    63  57  81 W3        30.13F
6HR MIN TEMP:  63; 6HR MAX TEMP:  68; 6HR PCP: TRACE;

MANISTEE       CLOUDY    63  59  88 CALM      30.14S
OSCODA         FAIR      59  58  96 SW3       30.11S
6HR MIN TEMP:  56; 6HR MAX TEMP:  67;

PELLSTON       LGT RAIN  64  62  93 VRB6      30.07S
6HR MIN TEMP:  62; 6HR MAX TEMP:  68; 6HR PCP:  0.21;

ROGERS CITY    CLOUDY    65  58  80 S6        30.09F
TRAVERSE CITY  CLOUDY    64  60  87 S3        30.10S
6HR MIN TEMP:  63; 6HR MAX TEMP:  71; 6HR PCP:  0.05;

$$
MIZ007>008-015-290700-
EASTERN UPPER MICHIGAN

CITY           SKY/WX    TMP DP  RH WIND       PRES   REMARKS
KINROSS        CLOUDY    64  63  94 SW5       30.05S
6HR MIN TEMP:  64; 6HR MAX TEMP:  68;

MACKINAC ISLAN MOCLDY    65  58  78 SW10G18   30.06S
NEWBERRY       CLOUDY    64  62  91 SW9       30.04S
6HR MIN TEMP:  63; 6HR MAX TEMP:  65;

S. S. MARIE    CLOUDY    64  60  87 S5        30.04R
6HR MIN TEMP:  64; 6HR MAX TEMP:  68;

MUNISING         N/A     68  63  84 VRB7      30.03R
6HR MIN TEMP:  68; 6HR MAX TEMP:  71;

$$
MIZ004>006-011>014-085-290700-
CENTRAL UPPER MICHIGAN

CITY           SKY/WX    TMP DP  RH WIND       PRES   REMARKS
MANISTIQUE     MOCLDY    64  61  89 SW8       30.06R
6HR MIN TEMP:  63; 6HR MAX TEMP:  64;

ESCANABA       CLOUDY    64  61  88 W13G18    30.07R
6HR MIN TEMP:  64; 6HR MAX TEMP:  66; 6HR PCP:  0.39;

MENOMINEE      CLOUDY    61  55  82 W6        30.10R
6HR MIN TEMP:  61; 6HR MAX TEMP:  66;

SAWYER-GWINN   FAIR      64  60  86 SW12G20   30.05R
6HR MIN TEMP:  64; 6HR MAX TEMP:  71;

$$
MIZ001>003-009>011-084-290700-
WESTERN UPPER MICHIGAN

CITY           SKY/WX    TMP DP  RH WIND       PRES   REMARKS
IRON MOUNTAIN  CLOUDY    65  59  81 SW8       30.08R
6HR MIN TEMP:  63; 6HR MAX TEMP:  71;

HOUGHTON       CLOUDY    66  60  81 W15G28    30.00R
6HR MIN TEMP:  64; 6HR MAX TEMP:  68; 6HR PCP:  0.07;

COPPER HARBOR    N/A     70  61  73 W10G17    29.96R
6HR MIN TEMP:  64; 6HR MAX TEMP:  70; 6HR PCP:  0.01;

IRONWOOD       FAIR      63  57  82 S12       30.01F
6HR MIN TEMP:  63; 6HR MAX TEMP:  73;

$$

ABBREVIATIONS USED IN REMARKS
   TC - TEMPERATURE IN CELSIUS
  WCI - WIND CHILL INDEX
   HX - HEAT INDEX
  VSB - VISIBILITY




USA.gov is the U.S. government's official web portal to all federal, state and local government web resources and services.